Weather History for Cleveland, TX

Change the Weather History Date:

Tuesday, August 7, 2012

  Actual Average (KCXO) Record (KCXO)
Temperature  
Mean Temperature 83 °F -  
Max Temperature 95 °F 92 °F 102 °F (2003)
Min Temperature 71 °F 70 °F 68 °F (2004)
Cooling Degree Days 18    
Growing Degree Days 33 (Base 50)    
Moisture  
Dew Point 72 °F    
Average Humidity 72    
Maximum Humidity 94    
Minimum Humidity 44    
Precipitation  
Precipitation 0.00 in - - ()
Sea Level Pressure  
Sea Level Pressure 29.96 in    
Wind  
Wind Speed 1 mph (SSE)    
Max Wind Speed 7 mph    
Max Gust Speed -    
Visibility 8 miles    
Events      
Averages and records for this station are not official NWS values.
T = Trace of Precipitation, MM = Missing Value Source: NWS Daily Summary

Daily Weather History Graph

Daily Weather History Graph

Search for Another Location

Airport:

Trip Planner

Search our weather history database for the weather conditions in past years. The results will help you decide how hot, cold, wet, or windy it might be!

Date:

Astronomy

Aug. 07, 2012 Rise Set
Actual Time 6:42 AM CDT 8:08 PM CDT
Civil Twilight 6:16 AM CDT 8:34 PM CDT
Nautical Twilight 5:46 AM CDT 9:04 PM CDT
Astronomical Twilight 5:14 AM CDT 9:36 PM CDT
Moon 11:21 PM CDT (8/7) 12:00 PM CDT (8/7)
Length of Visible Light 14h 17m
Length of Day
13h 26m
Waning Gibbous, 69% of the Moon is Illuminated
Aug 7
Waning Gibbous
Aug 9
Last Quarter
Aug 17
New
Aug 24
First Quarter
Aug 31
Full

Hourly Weather History & Observations

Time (CDT) Temp. Heat Index Dew Point Humidity Pressure Visibility Wind Dir Wind Speed Gust Speed Precip Events Conditions
12:15 AM 75.2 °F - 71.6 °F 89% 29.99 in 10.0 mi Calm Calm - N/A   Clear
12:35 AM 75.2 °F - 71.6 °F 89% 29.99 in 10.0 mi Calm Calm - N/A   Clear
12:55 AM 73.4 °F - 71.6 °F 94% 29.99 in 10.0 mi Calm Calm - N/A   Clear
1:15 AM 73.4 °F - 71.6 °F 94% 29.98 in 5.0 mi Calm Calm - N/A   Clear
1:35 AM 73.4 °F - 71.6 °F 94% 29.97 in 7.0 mi Calm Calm - N/A   Clear
1:55 AM 73.4 °F - 69.8 °F 88% 29.97 in 5.0 mi Calm Calm - N/A   Clear
2:15 AM 73.4 °F - 69.8 °F 88% 29.96 in 5.0 mi Calm Calm - N/A   Clear
2:35 AM 73.4 °F - 69.8 °F 88% 29.96 in 5.0 mi Calm Calm - N/A   Clear
2:55 AM 73.4 °F - 69.8 °F 88% 29.96 in 5.0 mi Calm Calm - N/A   Clear
3:15 AM 73.4 °F - 71.6 °F 94% 29.95 in 7.0 mi Calm Calm - N/A   Clear
3:35 AM 73.4 °F - 69.8 °F 88% 29.95 in 5.0 mi Calm Calm - N/A   Clear
3:55 AM 73.4 °F - 69.8 °F 88% 29.95 in 4.0 mi Calm Calm - N/A   Clear
4:15 AM 71.6 °F - 69.8 °F 94% 29.95 in 5.0 mi Calm Calm - N/A   Clear
4:35 AM 71.6 °F - 69.8 °F 94% 29.96 in 3.0 mi Calm Calm - N/A   Clear
4:55 AM 71.6 °F - 69.8 °F 94% 29.96 in 3.0 mi Calm Calm - N/A   Clear
5:15 AM 71.6 °F - 69.8 °F 94% 29.96 in 2.5 mi Calm Calm - N/A   Clear
5:35 AM 71.6 °F - 69.8 °F 94% 29.97 in 4.0 mi Calm Calm - N/A   Clear
5:55 AM 71.6 °F - 69.8 °F 94% 29.97 in 2.5 mi Calm Calm - N/A   Clear
6:15 AM 71.6 °F - 69.8 °F 94% 29.97 in 2.5 mi Calm Calm - N/A   Clear
6:35 AM 71.6 °F - 69.8 °F 94% 29.98 in 2.5 mi Calm Calm - N/A   Clear
6:55 AM 71.6 °F - 69.8 °F 94% 29.98 in 3.0 mi Calm Calm - N/A   Clear
7:15 AM 71.6 °F - 69.8 °F 94% 29.99 in 3.0 mi Calm Calm - N/A   Clear
7:35 AM 73.4 °F - 69.8 °F 88% 29.99 in 4.0 mi Calm Calm - N/A   Clear
7:55 AM 73.4 °F - 71.6 °F 94% 29.99 in 5.0 mi Calm Calm - N/A   Clear
8:15 AM 77.0 °F - 71.6 °F 83% 30.00 in 7.0 mi Calm Calm - N/A   Clear
8:55 AM 80.6 °F 85.4 °F 73.4 °F 79% 30.00 in 10.0 mi Calm Calm - N/A   Clear
9:15 AM 80.6 °F 85.4 °F 73.4 °F 79% 30.00 in 10.0 mi Calm Calm - N/A   Clear
9:35 AM 82.4 °F 88.2 °F 73.4 °F 74% 30.00 in 10.0 mi Calm Calm - N/A   Clear
9:55 AM 84.2 °F 90.9 °F 73.4 °F 70% 30.00 in 10.0 mi Calm Calm - N/A   Clear
10:15 AM 86.0 °F 93.4 °F 73.4 °F 66% 30.00 in 10.0 mi Calm Calm - N/A   Clear
10:35 AM 87.8 °F 95.6 °F 73.4 °F 62% 30.00 in 10.0 mi Calm Calm - N/A   Clear
10:55 AM 87.8 °F 93.8 °F 71.6 °F 58% 30.00 in 10.0 mi Calm Calm - N/A   Clear
11:15 AM 89.6 °F 96.2 °F 71.6 °F 55% 30.00 in 10.0 mi Calm Calm - N/A   Clear
11:35 AM 89.6 °F 96.2 °F 71.6 °F 55% 30.00 in 10.0 mi Calm Calm - N/A   Clear
11:55 AM 91.4 °F 98.4 °F 71.6 °F 52% 30.00 in 10.0 mi WSW 3.5 mph - N/A   Clear
12:15 PM 87.8 °F 93.8 °F 71.6 °F 58% 29.99 in 10.0 mi Calm Calm - N/A   Mostly Cloudy
12:35 PM 89.6 °F 96.2 °F 71.6 °F 55% 29.99 in 10.0 mi Calm Calm - N/A   Mostly Cloudy
12:55 PM 89.6 °F 96.2 °F 71.6 °F 55% 29.98 in 10.0 mi Calm Calm - N/A   Scattered Clouds
1:15 PM 93.2 °F 102.4 °F 73.4 °F 52% 29.98 in 10.0 mi SE 3.5 mph - N/A   Clear
1:35 PM 95.0 °F 103.2 °F 71.6 °F 47% 29.97 in 10.0 mi Calm Calm - N/A   Scattered Clouds
1:55 PM 93.2 °F 102.4 °F 73.4 °F 52% 29.96 in 10.0 mi Calm Calm - N/A   Clear
2:15 PM 95.0 °F 103.2 °F 71.6 °F 47% 29.95 in 10.0 mi ENE 3.5 mph - N/A   Scattered Clouds
2:35 PM 93.2 °F 100.5 °F 71.6 °F 49% 29.95 in 10.0 mi ESE 3.5 mph - N/A   Scattered Clouds
2:55 PM 95.0 °F 103.2 °F 71.6 °F 47% 29.94 in 10.0 mi Calm Calm - N/A   Scattered Clouds
3:15 PM 95.0 °F 103.2 °F 71.6 °F 47% 29.94 in 10.0 mi South 3.5 mph - N/A   Clear
3:35 PM 95.0 °F 101.3 °F 69.8 °F 44% 29.93 in 10.0 mi Calm Calm - N/A   Clear
3:55 PM 95.0 °F 103.2 °F 71.6 °F 47% 29.93 in 10.0 mi SSE 4.6 mph - N/A   Clear
4:15 PM 95.0 °F 103.2 °F 71.6 °F 47% 29.92 in 10.0 mi South 6.9 mph - N/A   Scattered Clouds
4:35 PM 95.0 °F 103.2 °F 71.6 °F 47% 29.92 in 10.0 mi Calm Calm - N/A   Scattered Clouds
4:55 PM 95.0 °F 104.5 °F 73.4 °F 49% 29.91 in 10.0 mi SE 3.5 mph - N/A   Scattered Clouds
5:15 PM 95.0 °F 103.2 °F 71.6 °F 47% 29.90 in 10.0 mi SSE 4.6 mph - N/A   Clear
5:35 PM 95.0 °F 103.2 °F 71.6 °F 47% 29.90 in 10.0 mi South 6.9 mph - N/A   Scattered Clouds
5:55 PM 93.2 °F 100.5 °F 71.6 °F 49% 29.90 in 10.0 mi SSE 5.8 mph - N/A   Clear
6:15 PM 93.2 °F 100.5 °F 71.6 °F 49% 29.90 in 10.0 mi South 5.8 mph - N/A   Scattered Clouds
6:35 PM 91.4 °F 98.4 °F 71.6 °F 52% 29.91 in 10.0 mi SSE 3.5 mph - N/A   Clear
6:55 PM 89.6 °F 96.2 °F 71.6 °F 55% 29.91 in 10.0 mi SSE 4.6 mph - N/A   Clear
7:15 PM 89.6 °F 98.2 °F 73.4 °F 59% 29.92 in 10.0 mi Calm Calm - N/A   Clear
7:35 PM 87.8 °F 95.6 °F 73.4 °F 62% 29.92 in 10.0 mi Calm Calm - N/A   Clear
7:55 PM 82.4 °F 88.2 °F 73.4 °F 74% 29.91 in 10.0 mi SSE 3.5 mph - N/A   Clear
8:15 PM 82.4 °F 88.2 °F 73.4 °F 74% 29.92 in 10.0 mi South 3.5 mph - N/A   Clear
8:35 PM 82.4 °F 88.2 °F 73.4 °F 74% 29.92 in 10.0 mi South 3.5 mph - N/A   Clear
8:55 PM 80.6 °F 85.4 °F 73.4 °F 79% 29.92 in 10.0 mi South 4.6 mph - N/A   Clear
9:15 PM 80.6 °F 85.4 °F 73.4 °F 79% 29.92 in 10.0 mi South 4.6 mph - N/A   Clear
9:35 PM 80.6 °F 85.4 °F 73.4 °F 79% 29.94 in 10.0 mi South 5.8 mph - N/A   Clear
9:55 PM 80.6 °F 85.4 °F 73.4 °F 79% 29.94 in 10.0 mi South 3.5 mph - N/A   Clear
10:15 PM 78.8 °F - 73.4 °F 83% 29.95 in 10.0 mi South 3.5 mph - N/A   Clear
10:35 PM 78.8 °F - 73.4 °F 83% 29.95 in 10.0 mi Calm Calm - N/A   Clear
10:55 PM 78.8 °F - 73.4 °F 83% 29.95 in 10.0 mi South 3.5 mph - N/A   Clear
11:15 PM 78.8 °F - 73.4 °F 83% 29.95 in 10.0 mi South 3.5 mph - N/A   Clear
11:35 PM 78.8 °F - 73.4 °F 83% 29.95 in 7.0 mi Calm Calm - N/A   Clear
11:55 PM 78.8 °F - 73.4 °F 83% 29.96 in 10.0 mi Calm Calm - N/A   Clear